Location: Unspecified
(0.0000°N, 0.0000°E)
Time: 00:45:34
(UTC+00:00)

SRMSAT - Pass Details

Date: 01 April 2019
Orbit: 848 x 866 km, 20.0° (Epoch: 19 July)

Event Time Altitude Azimuth Distance (km) Brightness Sun altitude
Exits shadow 04:52:35 - 326° (NW) 2,924 ? -17.8°
Reaches altitude 10° 04:54:51 10° 343° (NNW) 2,460 ? -17.2°
Maximum altitude 04:57:36 13° 11° (N) 2,232 ? -16.6°
Drops below altitude 10° 05:00:21 10° 39° (NE) 2,466 ? -15.9°
Sets 05:04:25 0° 65° (ENE) 3,408 ? -14.9°
